CAPE
732 718 1053 1671 2097 1533 15 48 137 212 201 211 362 393 865 817 692 918 1221 1551 1383 938 1511 1948 3149 3003 3057 2941 2945 2723 2382 2190 1924 2036 2048 1711 1683 1603 1734 1632 1514 1377 1546 1519 1408 1404 1320 1227 918
730 1288 1290 1768 1682 0 0 32 113 248 271 116 351 522 626 796 828 1088 1224 1821 1446 999 772 1389 3007 3082 2937 3055 3084 2840 2256 2066 2063 2329 2102 1956 1642 1726 1904 1649 1745 1537 1433 1614 1558 1363 1005 831 1075
1009 1541 1321 1946 20 2 13 58 55 67 117 253 400 406 579 598 830 1151 1097 1640 1486 1176 868 2102 2989 2929 2492 2653 2847 2874 2713 2446 2403 2398 2231 1908 1801 1829 1484 1853 1736 1744 1658 1445 1497 1258 870 651 901
1770 1798 1561 618 1 0 0 0 2 54 69 113 442 475 549 618 912 1138 1001 1483 1219 1414 1655 2776 3059 2484 2475 2430 2560 2432 2360 2349 2269 2206 2118 1768 1793 1685 1548 1598 1725 1753 1663 1520 1525 892 757 805 988
1430 1421 1363 17 19 14 0 0 0 0 31 101 507 623 839 956 1076 1079 1001 1049 1369 1692 1723 1813 3165 2976 2615 2550 2674 2726 2642 2571 2453 2363 2252 1963 2049 1848 1729 1647 1671 1724 1673 1575 1491 853 1216 985 1332
1653 1219 595 49 1 20 27 1 0 14 73 189 392 802 952 862 918 934 937 1698 1580 2411 2045 1620 2773 2873 2536 2505 2191 2399 2393 2400 2389 2202 1791 1689 1755 1562 1433 1426 1443 1568 1640 1648 1526 1259 1523 1261 1428
1313 883 57 5 9 43 8 0 0 0 1 94 277 604 752 830 891 918 983 1501 2256 2152 2250 2367 2026 2308 2426 2400 2336 2387 2312 2304 2194 2094 2088 2017 1879 1778 1616 1544 1465 1550 1718 1423 1459 1435 1149 1400 1281
644 284 233 81 60 49 75 10 14 0 20 149 316 601 657 951 884 937 954 1268 1296 2337 2386 2387 2665 2589 2539 2070 2381 2270 2212 2197 2132 2152 1960 1814 1839 1880 1665 2036 2138 1567 1496 1548 1137 1209 1479 1168 990
193 209 97 36 53 49 104 55 161 190 194 17 122 431 617 752 865 1052 1128 1049 1402 2298 2262 2143 2557 3099 3098 2944 2342 2708 2237 2105 1977 2008 1937 1865 1877 1700 1440 1892 2201 1785 1673 1522 1507 1361 1620 1301 1048
66 107 172 16 0 46 75 126 186 239 77 124 232 463 596 745 1037 1258 1308 1271 1277 965 1942 2015 2363 2530 2895 2159 2895 2515 2120 1877 1973 1969 2387 2099 1849 1738 1638 2178 1563 1506 1891 1625 1470 1535 1608 1555 699
1 1 2 29 0 2 29 88 186 170 104 303 343 508 556 888 1187 1296 1239 1208 1320 1436 1304 2271 2156 2586 1990 1863 2399 2247 2265 2528 2365 2432 1996 2663 1951 2055 1513 1970 1565 1639 1950 1454 1770 1589 1148 1051 798
0 1 15 8 0 0 23 59 158 74 185 208 479 550 483 840 1039 1259 1329 1278 1319 1573 1438 1354 2237 2926 2701 2760 2644 2292 2084 2569 2533 1784 786 2207 1684 2081 2323 1556 1648 1395 1710 1127 1226 860 917 901 1060
3 2 6 4 8 0 0 0 40 50 191 155 493 503 525 694 877 1164 1161 1144 1346 1731 1868 2183 2977 3674 3532 3283 3485 2571 1787 2414 2153 1948 163 2105 2419 1730 2073 1888 1239 1106 1227 1902 2162 844 1392 1383 491
0 0 0 0 0 12 0 1 37 30 120 277 360 462 531 560 721 982 1199 1391 1398 1781 2100 2682 2929 3518 3454 3197 3114 2840 3227 2594 1910 1572 154 778 1869 1881 1503 1993 1622 1759 2204 2370 2642 1846 1604 1198 1712
0 0 0 0 0 9 28 9 9 2 68 370 310 489 764 907 740 976 1261 1674 1557 1932 1990 3012 3231 3308 3507 3827 4042 3345 2782 2568 2586 1882 791 568 495 523 1705 1352 2465 1833 2507 2644 2664 1573 1342 1461 1642
0 0 0 0 1 31 7 22 13 1 33 301 451 520 630 904 791 998 1238 1854 2023 1889 2612 2912 2391 3183 3595 3666 3633 2328 2207 1968 1425 2000 2000 1113 664 292 1152 1223 1223 1511 1806 2308 2481 2060 1578 1661 1685
0 0 0 0 44 44 44 24 42 30 56 311 559 773 681 899 1170 1512 1269 1420 1953 2645 3222 3433 3481 3421 3733 3511 3112 1967 805 915 1449 2010 1849 2042 1042 585 835 1222 1044 1241 1455 1893 2064 1720 1612 1441 1190
0 0 0 0 36 47 40 0 8 3 10 87 189 1037 1061 887 882 1233 1355 1334 1976 3023 3318 3765 3924 4128 4302 3480 3241 2667 700 1180 2178 1974 1861 2428 1197 651 977 775 857 1523 1284 954 1877 1718 1265 1497 1293
0 0 0 0 0 0 0 0 0 0 0 22 305 825 1292 1151 1080 1088 1149 1433 1880 2766 3728 4215 4321 4285 4300 3436 2571 1621 794 1719 1961 2129 2183 2256 1964 1055 567 689 334 1122 1023 1184 1340 915 1415 746 1123
0 0 0 0 0 0 0 0 0 0 10 4 25 290 864 1033 1309 1308 1451 1558 1831 2711 3864 4413 4280 4395 4515 4097 1607 1229 1614 1760 2547 2729 2092 1822 2069 1427 720 156 722 995 1037 979 283 407 976 1598 1373
0 0 0 0 0 0 0 0 0 0 0 1 22 59 364 897 1163 1706 1663 1637 1733 2915 3850 4466 4428 4755 4645 3894 2590 1283 964 2731 2894 2302 1959 1686 2044 1583 1243 1054 661 606 235 78 46 177 280 225 1576
0 0 0 0 0 0 0 0 1 0 28 36 14 39 3 979 1331 2043 1939 1940 1805 2696 3812 4597 4709 4886 4278 4028 2350 1885 2442 2454 2468 1917 1721 1836 1773 2029 1672 1202 1136 773 254 245 234 544 404 322 573
0 0 0 0 0 0 0 0 0 36 170 43 82 45 34 236 947 1859 2221 2267 2189 2873 4248 4475 4538 3473 3264 3803 3402 3227 3173 2865 2449 2948 1699 2069 2663 1919 1733 1659 1370 1548 1800 1175 853 1019 999 928 667
0 0 0 0 0 0 0 0 0 0 28 6 31 271 62 44 239 1244 2327 2631 2645 4096 4067 3901 2526 1673 1816 2915 2957 3218 2592 2927 2735 2001 1276 2393 2298 1949 920 1314 1511 1711 1673 1589 1478 1514 1346 576 703
0 0 0 0 0 0 0 0 0 6 55 24 11 100 38 93 269 1238 2732 2899 3905 3472 3245 2438 2203 1427 1326 1884 2397 2411 2303 2724 3105 2861 2458 2587 2217 2058 1304 594 643 1498 1874 1750 1444 1296 1237 1294 1288
0 0 0 0 0 0 49 2 29 81 69 0 0 14 97 174 572 1277 3054 3528 3883 2973 2584 1674 1639 1312 2212 2489 2726 3030 3341 3010 3475 2877 2978 2629 1772 1240 1232 490 497 685 959 1014 1029 1243 1279 1014 901
0 0 0 0 0 0 0 18 68 138 0 0 23 257 428 1057 949 1921 3809 3903 3750 3153 2559 2131 1786 2622 2699 2439 2632 3133 3368 3054 3264 2799 2817 1732 1513 978 581 462 341 719 678 742 1174 947 757 816 1050
0 0 0 0 3 14 1 106 250 298 65 802 1171 1227 1730 1800 1392 3424 3682 3735 3561 3118 2813 2451 2305 2353 2509 1883 2686 3240 2940 3224 3028 2908 2407 1849 1287 1038 419 490 830 837 355 310 705 1027 724 655 619
0 0 0 1 30 24 38 126 311 528 805 1635 1632 1789 2091 2433 2091 2538 2839 2854 3011 2693 2861 2341 2633 2445 2219 1850 2681 3296 3098 2963 2551 2174 1650 1429 1375 1076 647 690 714 941 847 887 705 827 782 575 709
3 0 0 2 13 34 106 98 19 307 617 1543 1815 1837 2272 2581 2593 2843 3062 3109 2713 2944 3027 3051 2969 2665 2086 3104 3222 3024 2864 2398 2492 2020 1864 1695 1372 1274 1235 822 809 428 541 458 272 473 825 713 796
CIN
-280 -158 -140 -23 -9 -29 -1 -6 -7 -10 -18 -15 -4 -7 -1 -3 -2 -1 -2 -8 -33 -102 -111 -70 -4 -1 0 0 0 0 -7 -1 0 0 0 0 0 0 0 0 0 0 0 0 0 0 0 0 0
-238 -170 -44 -36 -17 0 0 -26 -39 -30 -4 -10 -2 -4 -18 -12 -13 -1 0 -3 -12 -87 -135 -109 -3 0 0 0 0 0 -1 -3 -4 0 0 0 0 0 0 0 0 0 -1 0 0 0 0 0 0
-215 -88 -44 -11 0 0 -16 -28 -46 -46 -18 0 -28 -47 -23 -17 -2 0 -1 -4 -8 -29 -71 -54 0 0 -3 0 0 0 0 0 0 0 0 0 0 -1 -1 0 0 0 0 0 -1 0 0 0 0
-167 -28 -43 -14 0 0 0 0 0 -18 -35 -24 -8 -57 -40 -11 0 -14 -1 -3 -7 -2 -40 -34 0 -5 0 0 0 0 0 0 0 0 0 -1 -2 -3 -3 -1 -1 0 0 0 0 0 0 0 0
-106 -7 -3 -7 0 0 0 0 0 -5 -65 -15 -6 -26 -32 -25 -34 -27 -4 -2 -45 -9 -76 -97 0 0 0 0 0 0 0 0 0 0 0 0 0 -1 0 -1 0 -1 0 -2 -1 0 0 0 0
-10 -7 -21 -1 0 -1 -1 0 0 -42 -82 -27 -4 -9 -22 -53 -53 -26 -3 -2 -9 -1 -48 -102 -18 -1 0 0 0 0 0 0 0 0 0 -5 -2 -2 -3 -2 -2 -1 0 0 0 0 0 0 0
-1 -36 -25 -8 -1 -13 -1 0 0 0 -7 -23 -3 -26 -62 -46 -52 -31 -4 -3 -7 -5 -36 -55 -44 -15 0 0 0 0 0 0 0 0 0 -1 -1 0 -2 -5 -3 0 0 0 0 0 0 0 0
-1 -21 -53 -19 -48 0 0 -14 -26 0 -61 -59 -3 -22 -55 -38 -62 -44 -25 -3 0 -16 -26 -38 -14 -2 0 -7 0 0 0 0 -1 0 -7 -8 -1 0 -3 -4 -2 -1 0 0 0 0 0 0 0
-26 -8 -30 -2 0 -77 -4 -56 -8 -19 -22 -60 -33 -16 -45 -90 -87 -53 -46 -38 -3 -7 -11 -31 -11 -3 -2 -2 -5 0 0 0 0 0 -1 -11 -2 -1 -11 -7 -2 -3 0 0 0 0 0 0 -2
-7 -35 -34 -3 0 -11 -13 -11 -13 -392 -45 -41 -57 -69 -95 -109 -85 -58 -51 -33 -11 -5 -8 -18 -7 -1 -3 0 -10 -1 -2 -7 -20 -17 -7 -7 -8 -23 -3 -6 -15 -11 -3 0 0 0 0 0 -18
0 -3 -3 -2 0 0 -19 -14 -25 -203 -12 -22 -52 -78 -112 -97 -77 -61 -44 -34 -7 0 -1 -16 -8 -13 -6 -20 -50 -9 -11 -9 -22 -13 -29 -12 -22 -20 -38 -22 -33 -22 0 -12 -3 0 -6 -8 -15
0 0 -2 0 0 0 -1 -2 -14 -4 -9 -2 -37 -75 -114 -104 -87 -71 -44 -25 -22 -1 0 0 -5 -8 -3 -17 -18 -22 -18 -6 -4 -55 -23 -35 -17 -16 -8 -33 -42 -48 -24 -29 -28 -27 -36 -28 -25
0 -1 -2 -1 -1 0 0 0 -3 -2 -2 -17 -43 -64 -108 -111 -95 -59 -42 -23 -9 -6 -3 -4 -10 -5 -1 -2 -10 -31 -34 -22 -25 -61 -188 -16 -11 -13 -6 -21 -28 -59 -47 -14 -20 -65 -28 -33 -64
0 0 0 0 0 -4 0 -2 0 -1 -2 -6 -32 -60 -81 -101 -96 -76 -35 -5 -9 -4 -1 -9 -15 -7 -3 -9 -6 -15 -4 -30 -57 -68 -223 -88 -23 -20 -19 -12 -18 -28 -29 -7 -3 -28 -22 -44 -17
0 0 0 0 0 -6 -14 -3 -2 -10 -3 -2 -26 -58 -53 -66 -77 -82 -35 -4 -16 -13 -4 -11 -10 -6 -2 -2 -3 -10 -27 -19 -28 -36 -43 -24 -95 -85 -19 -26 -9 -19 -7 -4 -14 -30 -31 -33 -15
0 0 0 0 0 -4 -17 -7 -42 -25 -30 -8 -7 -40 -53 -63 -58 -77 -52 -8 -7 -21 -10 -15 -3 -5 -2 -2 -14 -58 -36 -34 -33 -47 -37 -39 -28 -65 -10 -21 -23 -31 -10 -3 -1 -15 -21 -20 -13
0 0 0 0 0 -6 -33 -2 -38 -12 -3 0 -16 -16 -39 -44 -60 -41 -62 -35 -13 -11 -16 -12 -10 -7 -5 -16 -18 -20 -19 -70 -56 -43 -25 -13 -13 -37 -4 -8 -20 -24 -16 -6 -1 -12 -23 -26 -40
0 0 0 0 -8 -8 -4 -1 -3 0 -20 -3 -33 -10 -18 -39 -74 -64 -54 -43 -11 -10 -20 -15 -6 -4 -11 -34 -21 -24 -90 -79 -40 -44 -53 -4 -28 -32 -1 -4 -10 -8 -4 -6 -2 -4 -17 -14 -28
0 0 0 0 0 0 0 0 0 0 0 -2 -14 -17 -14 -19 -25 -57 -59 -40 -29 -10 -16 -12 -7 -15 -4 -15 -27 -47 -95 -31 -52 -41 -16 -9 -2 -9 -11 0 -20 -3 -1 -1 -1 -16 -4 -39 -29
0 0 0 0 0 0 0 0 0 0 -3 -1 0 -17 -9 -13 -13 -22 -57 -46 -47 -17 -14 -9 -23 -20 -1 -4 -76 -120 -36 -29 -23 -16 -21 -3 -4 0 -14 -38 0 0 0 0 -54 -49 -15 -3 -22
0 0 0 0 0 0 0 0 0 0 0 -2 -2 -6 -9 -10 -23 -28 -51 -80 -65 -17 -13 -7 -29 -1 0 -5 -24 -73 -83 -1 -5 -14 -10 -8 -6 -6 0 0 0 -1 -31 -69 -97 -64 -35 -41 -6
0 0 0 0 0 0 0 0 0 0 0 -2 -7 -10 -1 -13 -14 -27 -83 -100 -85 -16 -13 -10 -25 0 -2 0 -35 -52 -3 -2 -15 -33 -18 -14 -4 -6 -1 -3 0 -2 -27 -36 -56 -24 -38 -37 -25
0 0 0 0 0 0 0 0 0 -8 -15 0 -6 -52 -52 -2 -12 -18 -63 -100 -66 -11 -7 -45 -1 -16 -12 0 -1 -1 -4 -6 -18 -6 -58 -31 -2 -5 -4 -9 -5 -2 -1 0 -14 -9 -9 -15 -16
0 0 0 0 0 0 0 0 0 0 -44 -111 -2 -20 -3 -18 -13 -15 -37 -89 -29 -25 -26 -69 -92 -128 -92 -6 -5 -1 -9 -3 -3 -25 -30 -11 -8 -11 -11 -4 -8 -2 0 -1 -3 -4 -8 -40 -24
0 0 0 0 0 0 0 0 0 -2 -38 -14 -9 -1 -8 -22 -19 -19 -27 -58 -27 -113 -107 -105 -118 -156 -144 -57 -13 -20 -17 -2 0 -3 -4 -1 -2 -1 -14 -26 -10 -4 -1 -2 -6 -10 -8 -10 -5
0 0 0 0 0 0 -4 0 0 -2 -7 0 0 -5 -18 -31 -24 -22 -25 -36 -59 -115 -75 -72 -159 -157 -23 -2 -1 0 0 0 -1 -2 -2 -2 -4 -4 -12 -41 -41 -22 -7 -1 -1 -4 -7 -11 -14
0 0 0 0 0 0 0 -3 -6 -21 -12 -3 -2 -12 -32 -28 -22 -18 -24 -54 -51 -89 -62 -122 -120 0 0 -1 -2 0 0 0 -2 -3 0 -4 -2 -11 -15 -23 -24 -8 -2 -1 -1 -7 -7 -7 -4
0 0 0 0 -1 0 -1 -3 -17 -24 -8 -12 -23 -40 -41 -41 -34 -20 -45 -52 -42 -56 -73 -64 -42 -33 -9 -18 -4 0 0 -2 -2 -1 0 -1 -2 -3 -21 -18 -5 -7 -7 -15 -3 -5 -6 -5 -11
0 0 0 0 -1 0 -1 -20 -51 -39 -10 -8 -27 -59 -60 -49 -63 -55 -62 -82 -64 -76 -59 -77 -19 -61 -58 -114 -9 -2 -2 -1 -5 -2 -13 -11 -2 -1 -4 -5 -7 -6 -10 -6 -2 -1 -4 -2 -15
-3 0 0 0 -3 -4 -3 -12 -60 -12 -8 -14 -30 -51 -57 -60 -48 -34 -28 -59 -80 -47 -28 -15 -4 -30 -40 -4 -8 -4 -1 0 0 -2 -1 -1 -1 -1 -4 -24 -2 -1 -9 -9 -1 -1 -8 -20 -1
Wind_Speed
26 26 33 23 34 30 nan nan 3 1 2 5 4 7 8 5 17 19 23 24 22 21 20 19 18 17 16 14 13 13 10 9 9 8 9 10 11 11 11 11 12 13 10 5 5 8 7 6 5
33 28 18 35 37 nan nan nan 2 5 12 9 3 14 10 8 12 13 17 23 23 22 21 19 18 17 16 14 12 12 10 9 10 9 7 8 10 12 12 11 11 12 11 6 3 5 7 7 6
31 38 37 38 nan nan nan nan nan nan 11 14 10 7 11 19 23 15 15 22 19 21 22 20 19 17 16 15 12 11 10 9 8 8 6 7 9 10 12 13 10 11 11 10 5 6 7 6 6
31 35 41 22 nan nan nan nan nan nan nan 16 23 14 16 17 21 21 20 20 15 18 20 21 20 18 15 15 12 10 9 7 8 7 7 6 7 9 11 12 12 10 10 10 6 6 5 4 4
31 46 46 nan nan nan nan nan nan nan nan 8 19 25 24 21 26 29 22 14 11 9 18 22 20 17 16 14 13 11 9 6 6 8 9 8 8 4 12 12 12 12 11 11 8 6 5 4 5
37 42 33 nan nan nan nan nan nan nan nan 19 24 24 25 29 32 31 25 22 24 16 17 20 23 19 15 14 12 11 9 8 5 6 7 10 8 12 5 14 13 12 12 10 7 8 9 6 7
19 21 nan nan nan nan nan nan nan nan nan nan 24 25 26 34 34 35 25 28 23 17 16 19 22 21 18 14 12 12 11 9 8 6 6 6 4 4 3 6 14 13 12 11 10 9 9 9 9
37 23 45 nan nan nan nan nan nan nan nan 21 25 25 31 34 38 36 28 26 31 28 29 24 23 24 22 19 15 12 11 11 10 9 7 8 6 4 1 2 9 12 12 11 10 8 8 9 10
30 29 nan nan nan nan 20 nan 24 19 14 nan 19 23 31 33 35 35 37 34 35 30 30 30 29 25 23 19 19 16 16 12 10 9 8 6 7 6 2 4 5 9 10 11 11 10 9 10 8
nan 18 30 nan nan nan nan 11 21 33 nan 20 21 25 30 34 35 34 38 37 38 38 33 32 34 35 31 27 20 17 28 20 12 12 14 8 7 12 12 12 10 10 12 11 11 12 12 11 13
nan nan nan nan nan nan nan nan 37 44 33 32 31 32 36 36 37 37 39 38 36 35 33 34 33 33 37 28 24 16 18 22 16 13 14 10 16 11 11 12 9 14 12 15 12 14 15 12 14
nan nan nan nan nan nan nan nan 13 nan 21 25 40 39 37 40 36 38 42 41 40 37 38 34 31 31 30 27 28 23 15 19 19 13 15 16 15 12 13 14 11 11 17 14 15 14 11 11 12
nan nan nan nan nan nan nan nan nan nan 24 27 45 43 38 39 38 36 36 39 40 38 39 34 29 31 32 25 28 19 18 20 22 17 8 16 14 15 14 13 15 16 15 18 17 17 16 16 13
nan nan nan nan nan nan nan nan nan nan 21 31 40 42 39 37 37 36 36 36 36 40 39 41 44 45 45 41 28 14 16 20 21 12 6 12 16 16 13 13 14 17 20 19 19 16 15 17 17
nan nan nan nan nan nan nan nan nan nan nan 26 36 37 39 33 39 35 34 34 38 42 40 42 45 49 49 45 41 26 13 12 17 18 10 10 11 13 15 14 17 19 19 16 17 17 16 13 18
nan nan nan nan nan nan nan nan nan nan nan 33 39 33 35 32 34 32 34 35 38 41 41 45 45 51 49 48 47 38 15 7 9 15 14 9 8 11 14 14 15 16 17 16 15 15 18 19 16
nan nan nan nan nan nan nan nan nan nan nan 28 41 38 38 36 27 33 35 38 40 39 41 43 43 48 55 47 47 42 26 4 11 11 12 12 2 7 12 13 14 17 17 17 16 14 15 16 17
nan nan nan nan nan nan nan nan nan nan nan nan 39 38 44 41 31 32 34 39 40 40 40 42 42 44 46 50 48 40 16 3 9 11 11 12 4 4 12 17 13 15 17 18 17 16 16 15 14
nan nan nan nan nan nan nan nan nan nan nan nan 35 48 41 37 39 32 36 37 39 39 38 37 40 41 43 44 42 22 18 12 12 11 11 14 10 7 9 14 14 17 18 18 19 19 18 17 15
nan nan nan nan nan nan nan nan nan nan nan nan nan 36 48 35 33 41 38 34 40 40 42 39 41 43 42 44 38 14 15 14 14 14 14 12 13 11 5 8 15 18 22 19 21 20 20 19 18
nan nan nan nan nan nan nan nan nan nan nan nan nan nan 33 40 36 38 40 33 39 42 40 36 38 38 40 33 34 22 18 16 15 17 17 14 16 12 8 10 10 17 19 nan nan 19 19 20 17
nan nan nan nan nan nan nan nan nan nan nan nan nan nan nan 31 30 36 37 34 38 40 38 36 34 35 34 34 32 28 24 19 15 15 15 19 13 14 11 11 10 14 15 15 18 16 18 17 14
nan nan nan nan nan nan nan nan nan nan 9 nan nan nan nan 8 35 43 41 34 36 41 39 39 35 34 30 35 30 28 30 17 18 14 20 17 14 12 12 11 12 14 17 17 17 14 15 17 18
nan nan nan nan nan nan nan nan nan nan nan nan nan 32 nan nan 14 35 48 40 34 40 40 35 39 37 30 35 37 29 31 18 17 12 14 15 12 10 12 12 15 15 15 16 17 17 18 20 19
nan nan nan nan nan nan nan nan nan nan nan nan nan 28 nan nan 22 38 46 38 36 41 41 35 42 36 35 37 37 39 32 15 19 13 14 15 13 12 14 15 18 18 16 16 16 16 17 17 17
nan nan nan nan nan nan nan nan nan nan nan nan nan nan nan 40 35 27 39 32 37 40 39 42 43 38 37 41 43 37 27 15 16 12 15 13 14 13 15 12 16 8 16 20 17 17 17 19 19
nan nan nan nan nan nan nan nan nan 28 nan nan nan 38 41 37 22 27 35 31 32 38 39 41 38 40 44 50 27 26 10 10 9 13 12 13 13 15 14 13 9 13 14 15 15 15 17 18 23
nan nan nan nan nan nan nan 8 21 26 nan 39 38 35 31 31 23 29 25 27 31 35 35 37 39 43 45 30 22 4 3 4 8 10 15 18 17 19 16 12 11 9 17 13 11 12 11 14 16
nan nan nan nan nan nan nan 20 36 38 37 33 27 28 32 25 19 20 22 26 31 32 31 34 35 42 35 23 15 2 6 6 11 10 16 19 20 21 17 16 12 7 13 10 13 12 10 13 18
nan nan nan nan nan nan 20 nan nan 22 23 40 31 33 28 21 18 19 27 27 27 27 29 27 26 31 17 13 20 14 11 10 13 15 20 21 22 21 21 19 15 12 13 15 13 14 22 21 19
Wind_Direction
46 47 64 60 60 63 nan nan 206 126 316 13 341 303 304 321 9 358 343 337 329 329 328 334 324 319 312 305 290 283 281 278 275 265 242 231 218 215 207 205 192 198 187 180 201 197 189 188 189
62 57 63 74 63 nan nan nan 132 82 66 24 123 347 313 314 331 354 352 336 341 335 345 336 329 330 323 316 303 288 289 283 273 262 240 220 211 213 214 207 200 200 188 173 179 176 188 185 178
76 77 68 61 nan nan nan nan nan nan 51 27 345 33 13 12 11 9 351 337 334 347 341 329 331 332 327 321 314 304 295 283 268 264 248 216 204 209 215 213 203 209 184 189 215 186 184 188 183
73 62 66 69 nan nan nan nan nan nan nan 30 360 359 9 34 21 0 8 325 352 349 325 334 339 336 334 324 325 324 302 289 274 268 249 228 219 208 212 209 207 205 196 196 209 191 187 198 174
70 78 78 nan nan nan nan nan nan nan nan 16 352 5 14 12 359 4 21 354 313 345 337 345 342 337 336 332 326 327 325 311 293 270 253 251 245 263 218 211 209 198 204 193 182 182 183 178 150
75 69 85 nan nan nan nan nan nan nan nan 355 356 3 11 8 12 14 29 11 356 351 355 354 352 352 337 334 329 325 328 324 323 310 288 265 280 298 220 209 205 196 197 206 193 186 170 177 170
51 40 nan nan nan nan nan nan nan nan nan nan 351 1 12 15 15 20 33 22 20 358 355 9 7 7 359 348 345 338 332 325 330 320 293 288 287 242 282 226 211 197 207 198 208 190 173 177 169
104 127 139 nan nan nan nan nan nan nan nan 349 13 5 11 5 13 18 31 36 37 14 15 12 13 16 10 6 1 353 338 331 328 319 300 276 254 260 246 290 206 207 203 199 203 192 182 185 170
85 67 nan nan nan nan 25 nan 315 272 27 nan 5 346 352 1 5 16 26 31 44 27 28 20 18 15 16 5 358 356 1 341 319 304 301 276 233 242 1 337 284 199 202 203 192 189 194 192 182
nan 90 86 nan nan nan nan 356 304 320 nan 7 356 337 344 4 5 13 26 28 34 39 23 26 22 16 11 6 346 351 347 341 316 294 276 251 243 231 237 273 300 221 212 202 194 190 192 191 186
nan nan nan nan nan nan nan nan 325 340 2 14 349 346 357 5 9 12 23 23 29 30 30 21 19 16 19 17 356 346 334 339 337 284 264 241 223 232 229 234 236 203 200 200 204 200 198 198 182
nan nan nan nan nan nan nan nan 332 nan 324 323 334 345 358 2 10 12 21 13 21 22 27 22 17 15 18 3 360 351 344 342 356 300 226 230 221 228 198 222 222 209 213 200 221 211 211 201 192
nan nan nan nan nan nan nan nan nan nan 312 322 324 336 354 358 3 11 20 8 16 14 16 10 6 12 13 13 9 350 345 348 352 351 208 207 215 210 220 207 211 221 213 217 212 207 209 223 208
nan nan nan nan nan nan nan nan nan nan 319 316 323 336 346 358 357 9 9 7 6 5 9 357 0 3 7 2 1 358 0 344 344 354 294 226 208 204 209 208 200 219 218 211 213 216 210 222 223
nan nan nan nan nan nan nan nan nan nan nan 326 328 333 339 352 353 6 3 3 8 5 3 354 358 1 356 351 351 339 337 344 338 345 19 257 233 206 196 201 220 213 218 219 208 214 213 227 225
nan nan nan nan nan nan nan nan nan nan nan 333 327 328 334 345 349 356 357 355 1 3 360 357 359 357 358 357 350 339 308 341 355 354 9 354 264 227 203 198 212 222 221 221 225 221 220 220 227
nan nan nan nan nan nan nan nan nan nan nan 311 334 331 337 333 346 342 350 350 355 356 356 2 356 354 2 355 355 339 285 333 23 356 360 6 337 245 226 210 202 236 227 229 224 225 236 228 216
nan nan nan nan nan nan nan nan nan nan nan nan 327 327 338 331 339 337 344 345 351 349 351 353 353 1 353 356 344 330 253 41 9 4 358 328 287 287 237 219 202 228 232 222 235 233 231 235 229
nan nan nan nan nan nan nan nan nan nan nan nan 309 321 324 337 328 330 334 341 351 346 345 343 347 352 349 346 347 351 12 8 346 335 315 310 311 293 266 225 226 223 229 228 232 227 230 228 235
nan nan nan nan nan nan nan nan nan nan nan nan nan 315 325 329 325 322 327 342 349 345 339 342 346 355 347 356 4 7 345 343 330 324 318 307 302 296 274 246 229 230 233 238 241 240 232 237 230
nan nan nan nan nan nan nan nan nan nan nan nan nan nan 306 312 318 318 325 341 345 345 340 337 342 347 346 353 348 346 345 341 339 325 327 320 299 295 297 285 270 247 253 nan nan 247 252 240 235
nan nan nan nan nan nan nan nan nan nan nan nan nan nan nan 296 306 319 330 337 342 340 331 324 327 338 338 350 349 350 333 334 325 327 320 307 303 298 299 301 285 266 264 255 260 255 261 260 246
nan nan nan nan nan nan nan nan nan nan 77 nan nan nan nan 240 310 312 323 338 334 329 318 319 322 335 335 335 348 334 335 317 317 306 302 297 294 302 313 307 289 275 269 266 270 262 253 248 247
nan nan nan nan nan nan nan nan nan nan nan nan nan 236 nan nan 279 309 317 327 330 316 309 317 319 326 329 330 333 337 331 299 305 305 300 303 290 285 280 283 281 268 261 263 262 260 265 260 251
nan nan nan nan nan nan nan nan nan nan nan nan nan 273 nan nan 289 294 302 316 313 307 313 319 317 320 328 328 327 322 332 311 309 323 321 311 295 289 280 272 247 248 252 254 264 267 262 256 257
nan nan nan nan nan nan nan nan nan nan nan nan nan nan nan 279 283 294 298 304 304 310 315 314 315 319 319 321 312 309 315 294 294 344 322 317 328 312 301 296 289 294 259 242 240 244 258 252 252
nan nan nan nan nan nan nan nan nan 201 nan nan nan 259 275 273 275 269 281 295 303 309 316 319 314 320 318 320 301 285 271 272 316 319 321 329 340 329 324 298 238 250 251 261 254 245 243 242 251
nan nan nan nan nan nan nan 182 242 315 nan 255 249 278 275 284 280 274 287 305 313 318 317 325 323 327 322 319 230 270 272 281 285 320 339 335 339 333 350 334 302 302 270 257 251 266 263 266 263
nan nan nan nan nan nan nan 256 263 224 211 237 266 286 293 287 281 284 295 295 307 318 325 334 333 352 351 340 96 79 277 306 306 322 322 323 332 329 347 347 334 325 285 273 249 250 263 255 256
nan nan nan nan nan nan 204 nan nan 231 241 264 273 298 293 292 291 291 287 298 319 323 326 337 351 355 360 45 4 356 311 325 324 324 320 325 329 345 353 348 335 303 265 244 246 255 257 255 251